TimeEDT,TemperatureF,Dew PointF,Humidity,Sea Level PressureIn,VisibilityMPH,Wind Direction,Wind SpeedMPH,Gust SpeedMPH,PrecipitationIn,Events,Conditions,WindDirDegrees,DateUTC
12:15 AM,59.0,44.6,59,29.95,10.0,North,4.6,-,N/A,,Clear,360,2013-04-02 04:15:00
12:35 AM,59.0,42.8,55,29.96,10.0,North,4.6,-,N/A,,Clear,360,2013-04-02 04:35:00
12:55 AM,57.2,42.8,59,29.96,10.0,North,5.8,-,N/A,,Clear,350,2013-04-02 04:55:00
1:15 AM,57.2,42.8,59,29.97,10.0,NNW,6.9,-,N/A,,Clear,340,2013-04-02 05:15:00
1:35 AM,57.2,41.0,55,29.97,10.0,NNW,6.9,-,N/A,,Clear,330,2013-04-02 05:35:00
2:15 AM,55.4,42.8,63,29.99,10.0,NNW,4.6,-,N/A,,Clear,340,2013-04-02 06:15:00
2:35 AM,53.6,42.8,67,29.99,10.0,North,3.5,-,N/A,,Clear,350,2013-04-02 06:35:00
2:55 AM,53.6,41.0,62,29.99,10.0,NNW,3.5,-,N/A,,Clear,340,2013-04-02 06:55:00
3:15 AM,50.0,42.8,76,29.99,10.0,NNW,3.5,-,N/A,,Clear,340,2013-04-02 07:15:00
3:35 AM,50.0,44.6,82,29.99,10.0,Calm,Calm,-,N/A,,Clear,0,2013-04-02 07:35:00
4:15 AM,46.4,44.6,93,30.00,10.0,North,3.5,-,N/A,,Clear,360,2013-04-02 08:15:00
4:35 AM,50.0,41.0,71,30.01,10.0,North,5.8,-,N/A,,Clear,10,2013-04-02 08:35:00
4:55 AM,50.0,41.0,71,30.02,10.0,North,8.1,-,N/A,,Clear,10,2013-04-02 08:55:00
5:15 AM,50.0,41.0,71,30.03,10.0,NNE,9.2,-,N/A,,Clear,20,2013-04-02 09:15:00
5:35 AM,50.0,41.0,71,30.04,10.0,NNE,12.7,16.1,N/A,,Clear,20,2013-04-02 09:35:00
5:55 AM,50.0,37.4,62,30.06,10.0,NNE,12.7,-,N/A,,Clear,20,2013-04-02 09:55:00
6:15 AM,48.2,35.6,62,30.07,10.0,NNE,8.1,-,N/A,,Clear,20,2013-04-02 10:15:00
6:35 AM,46.4,35.6,66,30.08,10.0,NNE,6.9,-,N/A,,Clear,20,2013-04-02 10:35:00
6:55 AM,46.4,35.6,66,30.10,10.0,North,8.1,-,N/A,,Clear,10,2013-04-02 10:55:00
7:15 AM,46.4,35.6,66,30.10,10.0,NNE,6.9,-,N/A,,Clear,20,2013-04-02 11:15:00
7:35 AM,46.4,35.6,66,30.12,10.0,NNE,8.1,-,N/A,,Clear,30,2013-04-02 11:35:00
7:55 AM,46.4,33.8,62,30.13,10.0,NNE,8.1,-,N/A,,Clear,20,2013-04-02 11:55:00
8:15 AM,48.2,35.6,62,30.15,10.0,NNE,4.6,-,N/A,,Clear,20,2013-04-02 12:15:00
8:35 AM,50.0,33.8,54,30.15,10.0,NNE,9.2,-,N/A,,Clear,30,2013-04-02 12:35:00
9:15 AM,51.8,32.0,47,30.15,10.0,NNE,12.7,-,N/A,,Clear,30,2013-04-02 13:15:00
9:35 AM,51.8,32.0,47,30.16,10.0,NE,12.7,18.4,N/A,,Clear,40,2013-04-02 13:35:00
9:55 AM,53.6,32.0,44,30.16,10.0,NNE,10.4,-,N/A,,Clear,20,2013-04-02 13:55:00
10:35 AM,55.4,32.0,41,30.16,10.0,NNE,10.4,16.1,N/A,,Clear,30,2013-04-02 14:35:00
10:55 AM,55.4,32.0,41,30.17,10.0,North,6.9,-,N/A,,Clear,10,2013-04-02 14:55:00
11:15 AM,55.4,32.0,41,30.17,10.0,North,6.9,-,N/A,,Clear,10,2013-04-02 15:15:00
11:55 AM,55.4,32.0,41,30.16,10.0,East,5.8,-,N/A,,Clear,80,2013-04-02 15:55:00
12:15 PM,59.0,32.0,36,30.15,10.0,NNE,8.1,16.1,N/A,,Clear,20,2013-04-02 16:15:00
12:35 PM,59.0,33.8,39,30.15,10.0,ENE,8.1,-,N/A,,Clear,60,2013-04-02 16:35:00
1:15 PM,59.0,32.0,36,30.13,10.0,Calm,Calm,-,N/A,,Clear,0,2013-04-02 17:15:00
1:35 PM,59.0,32.0,36,30.13,10.0,Calm,Calm,-,N/A,,Clear,0,2013-04-02 17:35:00
2:15 PM,60.8,33.8,36,30.11,10.0,SW,4.6,-,N/A,,Clear,230,2013-04-02 18:15:00
2:35 PM,60.8,33.8,36,30.10,10.0,SW,3.5,-,N/A,,Clear,220,2013-04-02 18:35:00
3:15 PM,62.6,35.6,37,30.09,10.0,WNW,4.6,-,N/A,,Clear,290,2013-04-02 19:15:00
3:35 PM,62.6,33.8,34,30.08,10.0,Calm,Calm,-,N/A,,Clear,0,2013-04-02 19:35:00
4:15 PM,64.4,35.6,34,30.07,10.0,WSW,4.6,-,N/A,,Clear,240,2013-04-02 20:15:00
4:35 PM,64.4,35.6,34,30.06,10.0,SW,8.1,-,N/A,,Clear,230,2013-04-02 20:35:00
4:55 PM,64.4,35.6,34,30.06,10.0,West,5.8,-,N/A,,Clear,280,2013-04-02 20:55:00
5:15 PM,64.4,32.0,30,30.06,10.0,Calm,Calm,-,N/A,,Clear,0,2013-04-02 21:15:00
5:35 PM,66.2,33.8,30,30.07,10.0,West,8.1,-,N/A,,Clear,270,2013-04-02 21:35:00
5:55 PM,66.2,33.8,30,30.07,10.0,WSW,8.1,-,N/A,,Clear,240,2013-04-02 21:55:00
6:15 PM,64.4,33.8,32,30.07,10.0,WNW,5.8,-,N/A,,Clear,300,2013-04-02 22:15:00
6:35 PM,64.4,33.8,32,30.07,10.0,WSW,8.1,-,N/A,,Clear,240,2013-04-02 22:35:00
6:55 PM,64.4,35.6,34,30.07,10.0,SW,5.8,-,N/A,,Clear,220,2013-04-02 22:55:00
7:15 PM,62.6,35.6,37,30.07,10.0,Calm,Calm,-,N/A,,Clear,0,2013-04-02 23:15:00
7:35 PM,57.2,44.6,63,30.07,10.0,Calm,Calm,-,N/A,,Clear,0,2013-04-02 23:35:00
8:15 PM,53.6,42.8,67,30.07,10.0,Calm,Calm,-,N/A,,Clear,0,2013-04-03 00:15:00
8:35 PM,55.4,41.0,58,30.08,10.0,SE,8.1,-,N/A,,Clear,140,2013-04-03 00:35:00
8:55 PM,55.4,41.0,58,30.09,10.0,SSE,9.2,-,N/A,,Clear,150,2013-04-03 00:55:00
9:15 PM,53.6,41.0,62,30.10,10.0,SSE,8.1,-,N/A,,Clear,160,2013-04-03 01:15:00
9:35 PM,53.6,42.8,67,30.11,10.0,SSE,6.9,-,N/A,,Clear,160,2013-04-03 01:35:00
9:55 PM,51.8,42.8,71,30.11,10.0,SSE,4.6,-,N/A,,Clear,150,2013-04-03 01:55:00
10:15 PM,51.8,42.8,71,30.11,10.0,SSE,3.5,-,N/A,,Clear,150,2013-04-03 02:15:00
10:55 PM,48.2,42.8,82,30.11,10.0,Calm,Calm,-,N/A,,Scattered Clouds,0,2013-04-03 02:55:00
11:15 PM,50.0,42.8,76,30.11,10.0,Calm,Calm,-,N/A,,Mostly Cloudy,0,2013-04-03 03:15:00
11:55 PM,46.4,42.8,87,30.11,10.0,Calm,Calm,-,N/A,,Mostly Cloudy,0,2013-04-03 03:55:00